Location: M.A.R.S.Observatory
(35.4031°N, 81.5481°W)
Time: 18:25:07
(UTC-04:00)

SL-8 R/B - Visible Passes

Search period start: 23 September 2014 00:00
Search period end: 03 October 2014 00:00
Orbit: 659 x 670 km, 48.4° (Epoch: 23 September)

Date Brightness Start Highest point End Pass type
(mag) Time Alt. Az. Time Alt. Az. Time Alt. Az.
29 Sep 5.9 06:40:04 10° S 06:43:56 24° SE 06:47:50 10° ENE visible
01 Oct 5.6 06:00:50 10° S 06:04:51 27° SE 06:08:54 10° ENE visible
02 Oct 6.5 04:53:38 10° SE 04:54:29 10° SE 04:55:19 10° ESE visible
02 Oct 4.0 06:31:35 10° SW 06:36:23 71° SE 06:41:12 10° ENE visible
